Simultaneous Nadir Overpasses (SNOs) Predictions

Prediction of SNOs over PacNW region [( 10.00, 139.50) to ( 22.70, 165.60)] between NOAA-19 and NPP Satellites:

Table of predicted SNOs over PacNW region for the next 30.0 days since TLE Epoch: 5/18/2013
Index Date (NOAA-19) Time (NOAA-19) NOAA-19 Lat,Lon Date (NPP) Time (NPP) NPP Lat,Lon Distance(km) Time Diff (sec)
1 05/20/2013 03:46:43 13.26, 145.69 05/20/2013 03:49:25 12.32, 141.77 438.37 162
2 05/20/2013 14:43:27 10.02, 165.19 05/20/2013 14:42:58 9.24, 161.73 390.03 29
3 05/20/2013 16:23:22 17.60, 141.47 05/20/2013 16:21:55 18.22, 138.45 327.12 87
4 06/01/2013 15:52:39 22.64, 150.11 06/01/2013 15:55:03 23.52, 146.13 419.68 144
5 06/02/2013 03:09:14 22.69, 153.51 06/02/2013 03:07:48 22.06, 150.56 311.38 86
6 06/14/2013 02:37:23 14.00, 163.05 06/14/2013 02:39:52 13.09, 159.09 440.48 149
7 06/14/2013<
